sat.trackr.live / text

‹ back to catalog

COSMOS 2598 (RODNIK-S *)

NORAD 66648 · 2025-273B

PAYLOAD ACTIVE UNKNOWN

§ Identity

Operator
Country
CIS
Launch date
2025-11-25
Launch site
PLMSC
Launch vehicle
Mass (kg)
RCS (m²)

External: N2YO · Heavens-Above · Gunter

§ Orbital elements

Epoch: 2026-09-20T14:22:43.182624Z

Period
115.86 min
Inclination
82.4996°
Eccentricity
0.0011074
Mean motion
12.42882782 rev/d
Perigee alt
1,485.7 km
Apogee alt
1,503.1 km
Semi-major
7,872.5 km
B*
1.5751e-4
RAAN
111.2620°
Arg perigee
342.7362°
Mean anomaly
17.3340°
Rev number
3,715

§ Raw data

COSMOS 2598 (RODNIK-S *)1 66648U 25273B   26263.59911091  .00000032  00000+0  15751-3 0  99992 66648  82.4996 111.2620 0011074 342.7362  17.3340 12.42882782 37151

JSON: /api/v1/satellites/66648 · /tle

For live sub-satellite position, see the globe view (requires WebGL).

§ Visibility from observer

Set your observer location to see the next 7 days of passes ≥ 10°. The values pass through the URL so the page stays shareable.

No JS? Fill the form by hand. The geolocation button needs JavaScript.